This is the latest recevied weather packets stored in our database for station/object SP2CDN-10. If no packets are shown the sender has not sent any weather packets the latest 10 day(s).
| Time | Temp. | Humidity | Pressure | Rain* | Wind** | Luminosity | Snow |
|---|---|---|---|---|---|---|---|
| 1788600282 | 18.33° C | 59% | 1010.3 hPa | - | - | - | - |
| 1788598001 | 18.33° C | 63% | 1010 hPa | - | - | - | - |
| 1788595723 | 17.22° C | 68% | 1009.7 hPa | - | - | - | - |
| 1788593437 | 17.22° C | 69% | 1009.1 hPa | - | - | - | - |
| 1788591156 | 16.67° C | 73% | 1008.5 hPa | - | - | - | - |
| 1788588874 | 16.11° C | 81% | 1008.4 hPa | - | - | - | - |
| 1788586592 | 15° C | 87% | 1008.1 hPa | - | - | - | - |
| 1788584310 | 14.44° C | 89% | 1007.7 hPa | - | - | - | - |
| 1788582029 | 13.89° C | 91% | 1007.2 hPa | - | - | - | - |
| 1788579747 | 13.89° C | 91% | 1006.9 hPa | - | - | - | - |
| 1788577466 | 14.44° C | 91% | 1006.5 hPa | - | - | - | - |
| 1788575184 | 15° C | 90% | 1006.1 hPa | - | - | - | - |
| 1788572903 | 15° C | 91% | 1005.7 hPa | - | - | - | - |
| 1788570635 | 15.56° C | 90% | 1005.3 hPa | - | - | - | - |
| 1788568339 | 15.56° C | 95% | 1004.7 hPa | - | - | - | - |
| 1788566058 | 15.56° C | 100% | 1003.9 hPa | - | - | - | - |
| 1788563779 | 16.11° C | 100% | 1003.6 hPa | - | - | - | - |
| 1788561494 | 16.67° C | 100% | 1003.3 hPa | - | - | - | - |
| 1788559212 | 17.22° C | 100% | 1002.7 hPa | - | - | - | - |
| 1788556931 | 17.22° C | 98% | 1002.6 hPa | - | - | - | - |
| 1788554649 | 17.22° C | 97% | 1002.8 hPa | - | - | - | - |
| 1788552368 | 17.22° C | 100% | 1002.8 hPa | - | - | - | - |
| 1788550086 | 17.78° C | 100% | 1002.7 hPa | - | - | - | - |
| 1788547805 | 17.78° C | 100% | 1001.9 hPa | - | - | - | - |
| 1788545523 | 17.78° C | 100% | 1001.3 hPa | - | - | - | - |
* Rain since midnight (hover to see other rain measurements)
** Current wind speed in m/s (hover to see current wind gust speed)